This is the latest recevied weather packets stored in our database for station/object KE3HG-2. If no packets are shown the sender has not sent any weather packets the latest 1 day(s).
| Time | Temp. | Humidity | Pressure | Rain* | Wind** | Luminosity | Snow |
|---|---|---|---|---|---|---|---|
| 1777967272 | 16.11° C | 51% | 757.5 hPa | 0 mm | 0 m/s | - | - |
| 1777966672 | 16.11° C | 51% | 757.5 hPa | 0 mm | 0 m/s | - | - |
| 1777966072 | 16.11° C | 50% | 757.5 hPa | 0 mm | 0 m/s | - | - |
| 1777965099 | 16.11° C | 50% | 757.5 hPa | 0 mm | 0 m/s | - | - |
| 1777964499 | 16.67° C | 49% | 757.5 hPa | 0 mm | 0.45 m/s, 160° | - | - |
| 1777963899 | 16.67° C | 49% | 757.5 hPa | 0 mm | 0.45 m/s, 50° | - | - |
| 1777962936 | 16.67° C | 48% | 757.5 hPa | 0 mm | 0 m/s | - | - |
| 1777962336 | 16.67° C | 48% | 757.5 hPa | 0 mm | 0.45 m/s, 3° | - | - |
| 1777961736 | 16.67° C | 47% | 757.5 hPa | 0 mm | 0.89 m/s, 213° | - | - |
| 1777960772 | 16.67° C | 46% | 757.5 hPa | 0 mm | 0.89 m/s, 224° | - | - |
| 1777960171 | 16.67° C | 46% | 757.5 hPa | 0 mm | 1.34 m/s, 212° | - | - |
| 1777959571 | 16.67° C | 45% | 757.5 hPa | 0 mm | 1.34 m/s, 216° | - | - |
| 1777958606 | 17.22° C | 44% | 757.5 hPa | 0 mm | 1.34 m/s, 206° | - | - |
| 1777958007 | 17.22° C | 44% | 757.5 hPa | 0 mm | 1.34 m/s, 218° | - | - |
| 1777957406 | 17.22° C | 43% | 757.5 hPa | 0 mm | 1.79 m/s, 210° | - | - |
| 1777956452 | 17.22° C | 42% | 757.5 hPa | 0 mm | 1.34 m/s, 200° | - | - |
| 1777955852 | 17.22° C | 42% | 757.5 hPa | 0 mm | 0.89 m/s, 207° | - | - |
| 1777955252 | 17.22° C | 41% | 757.5 hPa | 0 mm | 0.89 m/s, 212° | - | - |
| 1777954301 | 17.22° C | 39% | 757.5 hPa | 0 mm | 1.34 m/s, 216° | - | - |
| 1777953701 | 17.22° C | 39% | 757.5 hPa | 0 mm | 1.34 m/s, 207° | - | - |
| 1777953101 | 17.22° C | 39% | 757.5 hPa | 0 mm | 0.89 m/s, 190° | - | - |
| 1777952146 | 17.22° C | 38% | 757.5 hPa | 0 mm | 0.89 m/s, 206° | - | - |
* Rain latest hour (hover to see other rain measurements)
** Current wind speed in m/s (hover to see current wind gust speed)